sat.trackr.live / text

‹ back to catalog

STARLINK-6288

NORAD 56398 · 2023-061AA

PAYLOAD ACTIVE UNKNOWN

§ Identity

Operator
Country
US
Launch date
2023-05-04
Launch site
AFETR
Launch vehicle
Mass (kg)
RCS (m²)

Purposes: comms

External: N2YO · Heavens-Above · Gunter

§ Orbital elements

Epoch: 2026-05-23T22:23:50.210592Z

Period
94.27 min
Inclination
43.0053°
Eccentricity
0.0001690
Mean motion
15.27575712 rev/d
Perigee alt
481.9 km
Apogee alt
484.2 km
Semi-major
6,861.2 km
B*
1.5157e-5
RAAN
121.9720°
Arg perigee
277.5127°
Mean anomaly
82.5532°
Rev number
16,838

§ Raw data

STARLINK-62881 56398U 23061AA  26143.93322003  .00000155  00000+0  15157-4 0  99942 56398  43.0053 121.9720 0001690 277.5127  82.5532 15.27575712168380

JSON: /api/v1/satellites/56398 · /tle

For live sub-satellite position, see the globe view (requires WebGL).

§ Visibility from observer

Set your observer location to see the next 7 days of passes ≥ 10°. The values pass through the URL so the page stays shareable.

No JS? Fill the form by hand. The geolocation button needs JavaScript.